CZ-2D DEB, 44606

Orbit data source: Space-Track

CZ-2D DEB, 44606 is space debris in LEO originally from a launch on Fri, 11 Nov 2016 UTC launched from the Jiuquan Satellite Launch Center, China (JSC). Debris objects in space refer to the collection of defunct objects orbiting the Earth. Examples of debris include non-operational satellites, rocket bodies, and fragments generated from explosions, collisions, or faulty payload assembly.

Loading next visibility...
CZ-2D DEB details
Identifier
44606, 2016-068F
Orbit
LEO
Last TLE update9 hours ago
Origin
Flag of CNCASC (CN / PRC)
ManufacturerUnknown
MissionSpacecraft
Bus & MotorUnknown
MassUnknown
Launch date (UTC)
2016-11-11 (8 years ago)
Launch vehicleUnknown
Launch site
Jiuquan Satellite Launch Center, China (JSC)
Object type
Payload
Rocket body
Debris
Shape & HBRUnknown
Radar Cross SectionSmall (<0.1 m²)

Expand to show TLE details & history

TLE from 9 hours ago
0 CZ-2D DEB
1 44606U 16068F   24340.03751828  .00001242  00000-0  81670-3 0  9992
2 44606  98.4309  95.1270 0225041 318.8227  39.6143 13.91980526408613
Epoch: 2024-12-05T00:54Z
Definitive object data (Epoch: 2024-12-05T00:54:01.579Z)
Latitude-0.00002°
Longitude7.29636°
Altitude799.554 km
Speed7.517 km/s
True Right ascension06h 20m 30s
True Declination0° 00' 00"
Sunlit
Object was in full shadow at TLE epoch
Visualization TLE readout
Latitude65.74639°
Longitude-11.46765°
Altitude983.994 km
Speed7.34 km/s
Apparent Right ascension22h 17m 58s
Apparent Declination38° 38' 53"
Sunlit
Object is in full shadow
Visualization observer readout
Local Sidereal Time07:48:53
Azimuth331.683° NNW
Elevation-4.354°
Doppler factor1
Orbital elements
Apogee altitude1,083.092 km
Perigee altitude754.667 km
Semi-major axis7,297.016 km
Eccentricity0.0225041
Inclination98.4309°
RAAN95.127°
Arg. of periapsis318.8227°
True anomaly41.29472°
Mean anomaly39.6143°
Eccentric anomaly40.45085°
Mean motion3.48197 °/min
BSTAR0.0008167
Orbital period103.39 mins
Loading maneuver chart data...
Loading historical data...
Loading historical data...
Loading historical data...
Loading historical data...
Loading historical data...
Loading historical data...
Loading historical data...

CZ-2D DEB Visibility forecast

Observer location: undefined°, undefined

Span
Click to sort rows by Start time (UTC) header in descending order
Start Az.
Max El. time (UTC)
Max El. Az.
Max El.
End time (UTC)
End Az.
12 mins2024-12-05 20:27:35.708Z19.931° NNE2024-12-05 20:33:35.708Z109.155° ESE42.599°2024-12-05 20:39:35.708Z182.995° SSW
8 mins2024-12-05 22:11:35.708Z335.683° NNW2024-12-05 22:14:35.708Z303.302° NW21.204°2024-12-05 22:19:35.708Z251.833° W
6 mins2024-12-06 06:24:35.708Z86.936° E2024-12-06 06:26:35.708Z63.165° ENE16.776°2024-12-06 06:30:35.708Z20.525° NNE
9 mins2024-12-06 08:04:35.708Z178.226° S2024-12-06 08:08:35.708Z278.756° WNW43.022°2024-12-06 08:13:35.708Z341.401° N
|